Date,TemperatureHighF,TemperatureAvgF,TemperatureLowF,DewpointHighF,DewpointAvgF,DewpointLowF,HumidityHigh,HumidityAvg,HumidityLow,PressureMaxIn,PressureMinIn,WindSpeedMaxMPH,WindSpeedAvgMPH,GustSpeedMaxMPH,PrecipitationSumIn
2013-7-1,82,74,68,74,71,67,98,91,76,29.99,29.83,5,0,7,0.00
2013-7-2,78,73,72,74,72,70,98,95,86,30.15,29.98,5,0,10,0.00
2013-7-3,82,76,73,78,74,72,99,94,80,30.22,30.13,3,0,8,0.00
2013-7-4,88,78,73,77,74,72,98,87,64,30.25,30.15,5,0,11,0.00
2013-7-5,88,76,72,78,74,71,98,93,70,30.25,30.17,4,0,10,0.01
2013-7-6,88,76,68,78,73,67,99,92,67,30.25,30.11,2,0,8,0.00
2013-7-7,88,78,72,78,74,71,99,89,67,30.18,30.06,5,0,7,0.01
2013-7-8,86,77,72,78,74,71,99,90,69,30.18,30.09,3,0,7,0.01
2013-7-9,89,79,73,79,74,72,98,87,68,30.16,30.05,6,0,8,0.00
2013-7-10,90,78,72,80,74,71,98,89,68,30.11,29.95,5,0,9,0.01
2013-7-11,81,74,71,77,73,70,98,96,84,29.97,29.88,2,0,7,0.01
2013-7-12,82,74,71,76,72,69,99,93,77,30.00,29.87,4,0,10,0.00
2013-7-13,82,74,70,76,72,69,97,92,81,30.11,29.99,6,0,8,0.01
2013-7-14,88,78,73,77,74,71,98,89,62,30.27,30.10,4,0,12,0.01
2013-7-15,89,78,70,77,73,70,99,87,62,30.31,30.23,4,0,7,0.00
2013-7-16,92,81,71,78,74,70,99,81,56,30.30,30.19,4,0,6,0.01
2013-7-17,91,78,74,81,74,72,96,90,70,30.22,30.11,5,0,10,0.00
2013-7-18,93,84,71,80,76,70,98,78,61,30.15,30.04,2,0,6,0.00
2013-7-19,91,81,74,79,75,73,98,83,61,30.11,29.98,4,0,8,0.01
2013-7-20,89,79,74,78,74,72,95,86,66,30.04,29.92,5,0,7,0.00
2013-7-21,90,77,72,78,73,70,97,88,65,30.01,29.89,4,0,14,0.00
2013-7-22,86,77,71,77,73,70,99,90,72,29.98,29.84,4,0,7,0.01
2013-7-23,89,79,73,78,74,72,97,84,62,29.86,29.75,6,0,7,0.00
2013-7-24,93,79,70,77,73,68,98,82,53,29.87,29.73,4,0,7,0.00
2013-7-25,83,74,69,73,70,67,97,86,70,30.03,29.80,5,0,8,0.00
2013-7-26,87,75,66,72,69,65,98,84,56,30.11,30.01,4,0,5,0.00
2013-7-27,83,73,69,76,71,67,98,94,77,30.04,29.93,5,0,13,0.01
2013-7-28,87,77,70,76,72,70,98,88,64,29.99,29.92,3,0,15,0.00
2013-7-29,86,76,70,73,71,68,98,85,59,30.15,29.99,4,0,7,0.00
2013-7-31,84,77,71,76,73,70,97,86,71,30.15,29.98,4,0,8,0.00